NOAA 16 DEB, 41080

Orbit data source: Space-Track

NOAA 16 DEB, 41080 is space debris in SSO originally from a launch on Thu, 21 Sep 2000 UTC launched from the Air Force Western Test Range (AFWTR). Debris objects in space refer to the collection of defunct objects orbiting the Earth. Examples of debris include non-operational satellites, rocket bodies, and fragments generated from explosions, collisions, or faulty payload assembly.

Loading next visibility...
Identifier
41080, 2000-055AP
Orbit
SSO
Country
Flag of USUS
Related business
Manufacturer
Unknown
Mission
Spacecraft
Bus & Motor
Unknown
Mass
Unknown
Launch date (UTC)
2000-09-21 (25 years ago)
Launch vehicle
Unknown
Launch site
Air Force Western Test Range (AFWTR)
Object type
Payload
Rocket body
Debris
Shape & HBR
Unknown
Radar Cross Section
Small (<0.1 m²)

Expand to show TLE details & history
Last TLE update: 22 hours ago

TLE from 22 hours ago
0 NOAA 16 DEB
1 41080U 00055AP  25242.06749359  .00001623  00000-0  75230-3 0  9993
2 41080  98.5549 288.6822 0007576  23.9892 336.1638 14.22077461503483
Epoch: 2025-08-30T01:37Z
TLE epoch observation values (Epoch: 2025-08-30T01:37:11.446Z)
Latitude
0.00002°
Longitude
-74.1226°
Altitude
816.27 km
Speed
7.448 km/s
True Right ascension
19h 14m 43s
True Declination
0° 00' 00"
Sunlit
Object was in full shadow at epoch
Visualization orbit readout
Latitude
Unknown
Longitude
Unknown
Altitude
Unknown
Speed
Unknown
Apparent Right ascension
Unknown
Apparent Declination
Unknown
Sunlit
N/A
Visualization observer readout
Local Sidereal Time
15:41:21
Azimuth
Unknown
Elevation
Unknown
Doppler factor
Unknown
Orbital elements
Apogee altitude
820.934 km
Perigee altitude
810.034 km
Semi-major axis
7,193.621 km
Eccentricity
0.00076
Inclination
98.5549°
RAAN
288.6822°
Arg. of periapsis
23.9892°
True anomaly
336.12869°
Mean anomaly
336.1638°
Eccentric anomaly
336.14625°
Mean motion
3.55731 °/min
Orbital period
101.2 mins
BSTAR
0.0007523
Loading maneuver chart data...
Computing Atmospheric mass density...
Loading historical data...
Loading historical data...
Loading historical data...
Loading historical data...
Loading historical data...
Loading historical data...
Loading historical data...

Documentation

Showing up to 5 results
|